This is the latest recevied weather packets stored in our database for station/object NA9VY-8. If no packets are shown the sender has not sent any weather packets the latest 10 day(s).
| Time | Temp. | Humidity | Pressure | Rain* | Wind** | Luminosity | Snow |
|---|---|---|---|---|---|---|---|
| 1777394608 | 20° C | 76% | 1018.5 hPa | 0 mm | - | 681 W/m² | - |
| 1777394305 | 20° C | 76% | 1018.6 hPa | 0 mm | - | 645 W/m² | - |
| 1777394001 | 20° C | 77% | 1018.6 hPa | 0 mm | - | 143 W/m² | - |
| 1777393701 | 19.44° C | 79% | 1018.9 hPa | 0 mm | - | 181 W/m² | - |
| 1777393396 | 19.44° C | 81% | 1018.7 hPa | 0 mm | - | 186 W/m² | - |
| 1777393093 | 18.89° C | 81% | 1019.1 hPa | 0 mm | - | 676 W/m² | - |
| 1777392789 | 18.33° C | 86% | 1018.7 hPa | 0 mm | - | 142 W/m² | - |
| 1777392485 | 16.67° C | 94% | 1018.7 hPa | 0 mm | - | 158 W/m² | - |
| 1777392181 | 16.67° C | 99% | 1019 hPa | 0 mm | - | 199 W/m² | - |
| 1777391876 | 16.11° C | 99% | 1018.7 hPa | 0 mm | - | 804 W/m² | - |
| 1777391571 | 16.11° C | 99% | 1018.9 hPa | 0 mm | - | 109 W/m² | - |
| 1777391267 | 15.56° C | 99% | 1018.7 hPa | 0 mm | - | 171 W/m² | - |
| 1777390964 | 16.11° C | 99% | 1018.5 hPa | 0 mm | - | 207 W/m² | - |
| 1777390660 | 15.56° C | 99% | 1018.6 hPa | 0 mm | - | 347 W/m² | - |
| 1777390357 | 16.11° C | 99% | 1018.4 hPa | 0 mm | - | 197 W/m² | - |
| 1777390052 | 16.11° C | 99% | 1018.4 hPa | 0 mm | - | 531 W/m² | - |
| 1777389750 | 15.56° C | 99% | 1018.5 hPa | 0 mm | - | 283 W/m² | - |
| 1777389446 | 15.56° C | 99% | 1018.5 hPa | 0 mm | - | 248 W/m² | - |
| 1777389145 | 16.11° C | 99% | 1018.4 hPa | 0 mm | - | 184 W/m² | - |
| 1777388842 | 16.11° C | 99% | 1018.3 hPa | 0 mm | - | 261 W/m² | - |
| 1777388539 | 15.56° C | 99% | 1018.5 hPa | 0 mm | - | 219 W/m² | - |
| 1777388234 | 16.11° C | 99% | 1018.3 hPa | 0 mm | - | 612 W/m² | - |
| 1777387929 | 15.56° C | 99% | 1018 hPa | 0 mm | - | 197 W/m² | - |
| 1777387626 | 15.56° C | 99% | 1018.3 hPa | 0 mm | - | 149 W/m² | - |
| 1777387323 | 16.67° C | 99% | 1018.2 hPa | 0 mm | - | 93 W/m² | - |
* Rain latest hour (hover to see other rain measurements)
** Current wind speed in m/s (hover to see current wind gust speed)